STARLINK-3805, 52377

Orbit data source: Space-Track

STARLINK-3805, 52377 is a payload satellite owned by SpaceX/Seattle (US) in LEO that was launched on Fri, 29 Apr 2022 UTC via an FALCON 9 launch vehicle from the Air Force Eastern Test Range (AFETR). Payload-class satellites include a variety of spacecraft equipped with specific instruments for various scientific and technological missions. These include communications satellites like Starlink; space stations such as the ISS; scientific satellites like the Hubble; Earth observation satellites from companies like Planet Labs, Umbra, and HawkEye 360; GPS; miniature CubeSats for education and research; and military/defense satellites.

Loading next visibility...
Identifier
52377, 2022-045AY
Orbit
LEO
Country
Flag of USUS
Related business
Manufacturer
SpaceX/Seattle
Mission
Operational Commercial Communications
Bus & Motor
STARLINK, Unknown motor
Mass
297 kg wet, ~275 kg dry
Launch date (UTC)
2022-04-29 (4 years ago)
Launch vehicle
FALCON 9
Launch site
Air Force Eastern Test Range (AFETR)
Object type
Payload
Rocket body
Debris
Shape & HBR
Box + 1 Pan, 10.1 m
Radar Cross Section
11.087 m², Large (>1 m²)

Expand to show TLE details & history
Last TLE update: 3 days ago

TLE from 3 days ago
0 STARLINK-3805
1 52377U 22045AY  26170.97558274  .00000249  00000-0  33747-4 0  9993
2 52377  53.1616  90.0522 0001408  95.2881 264.8271 15.08839074231351
Epoch: 2026-06-19T23:24Z
TLE epoch observation values (Epoch: 2026-06-19T23:24:50.348Z)
Latitude
-0.00004°
Longitude
-169.35446°
Altitude
540.726 km
Speed
7.593 km/s
True Right ascension
06h 00m 12s
True Declination
0° 00' 00"
Sunlit
Object was in daylight at epoch
Visualization orbit readout
Latitude
Unknown
Longitude
Unknown
Altitude
Unknown
Speed
Unknown
Apparent Right ascension
Unknown
Apparent Declination
Unknown
Sunlit
N/A
Visualization observer readout
Local Sidereal Time
23:27:15
Azimuth
Unknown
Elevation
Unknown
Doppler factor
Unknown
Orbital elements
Apogee altitude
540.974 km
Perigee altitude
539.026 km
Semi-major axis
6,918.137 km
Eccentricity
0.00014
Inclination
53.1616°
RAAN
90.0522°
Arg. of periapsis
95.2881°
True anomaly
264.81103°
Mean anomaly
264.8271°
Eccentric anomaly
264.81907°
Mean motion
3.77189 °/min
Orbital period
95.44 mins
BSTAR
0.000033747
Loading maneuver chart data...
Computing Atmospheric mass density...
Loading historical data...
Loading historical data...
Loading historical data...
Loading historical data...
Loading historical data...
Loading historical data...
Loading historical data...

Documentation

Showing up to 5 results
|